Regional Weather Roundup
Issued by NWS Northern Indiana

Home | Current Version | Previous Version | Text Only | Print | Product List | Glossary On
Versions: 1 2 3 4 5 6 7 8 9 10 11 12 13 14 15 16 17 18 19 20 21 22 23 24 25 26 27 28 29 30 31 32 33 34 35 36 37 38 39 40 41 42 43 44 45 46 47 48 49 50
000
ASUS43 KIWX 050510
RWRIWX

KIWX WEATHER ROUNDUP
NATIONAL WEATHER SERVICE NORTHERN INDIANA
100 AM EDT SUN JUL 05 2015

NOTE: "FAIR" INDICATES FEW OR NO CLOUDS BELOW 12,000 FEET WITH NO
SIGNIFICANT WEATHER AND/OR OBSTRUCTIONS TO VISIBILITY.

* THESE STATIONS ARE NOT UNDER NWS QUALITY CONTROL. THEY ALSO MAY NOT
  REPORT WEATHER SUCH AS PRECIPITATION OR FOG.

INZ001>027-050600-
NORTHERN INDIANA

CITY           SKY/WX    TMP DP  RH WIND       PRES   REMARKS
GARY*          FOG      N/A N/A N/A CALM      30.04S VSB 1/4
VALPARAISO     CLEAR     65  60  84 CALM      30.06R
MICHIGAN CITY* CLEAR     59  59 100 CALM      30.05S FOG
LAPORTE*       CLEAR     63  62  98 CALM      30.06S FOG
KNOX*          CLEAR     63  63 100 CALM      30.04S
SOUTH BEND     CLEAR     64  57  78 CALM      30.06S
GOSHEN         CLEAR     62  59  90 CALM      30.06S FOG
MONTICELLO*    CLEAR     64  64  99 CALM      30.05R FOG
LOGANSPORT*    CLEAR     61  59  94 CALM      30.06S FOG
ROCHESTER*     CLEAR     64  63  94 CALM      30.06S FOG
WARSAW*          N/A     61  61 100 CALM      30.06S FOG
ANGOLA*          N/A     61  59  94 CALM      30.07S
FORT WAYNE     CLEAR     64  60  87 CALM      30.07R
HUNTINGTON*    CLEAR     62  61  96 CALM      30.06R FOG
PERU/GRISSOM   CLEAR     63  61  94 SE1       30.05S
MARION*        CLEAR     62  60  93 CALM      30.07S

$$
INZ028>050-050600-
CENTRAL INDIANA

CITY           SKY/WX    TMP DP  RH WIND       PRES   REMARKS
LAFAYETTE      CLEAR     63  61  93 CALM      30.05R FOG
KOKOMO*        CLEAR     64  61  88 CALM      30.06R
MUNCIE*        PTCLDY    65  60  84 CALM      30.07R HAZE
INDIANAPOLIS   PTCLDY    70  58  65 NE5       30.04R HAZE

$$
MIZ043>046-050>051-056>058-064>065-071>073-077>080-050600-
SOUTHWEST LOWER MICHIGAN

CITY           SKY/WX    TMP DP  RH WIND       PRES   REMARKS
BATTLE CREEK   CLEAR     65  59  81 CALM      30.07S HAZE
BENTON HARBOR  CLEAR     56  54  93 CALM      30.04S FOG
COLDWATER*     CLEAR     60  58  96 CALM      30.07S FOG
HILLSDALE*     CLEAR     61  60  99 CALM      30.08S FOG
HOLLAND        CLEAR     61  58  90 CALM      30.05S
GRAND RAPIDS   CLEAR     62  58  86 CALM      30.06R
KALAMAZOO      CLEAR     63  58  83 CALM      30.06S HAZE
STURGIS*       CLEAR     63  61  94 CALM      30.06S FOG
THREE RIVERS*    N/A     62  60  92 CALM      30.07S FOG

$$
OHZ001>008-015>018-024>025-050600-
NORTHWEST OHIO

CITY           SKY/WX    TMP DP  RH WIND       PRES   REMARKS
DEFIANCE       CLEAR     63  60  90 CALM      30.07R
FINDLAY        CLEAR     65  57  75 SE6       30.07R
TOLEDO EXPRESS CLEAR     61  56  83 CALM      30.07R
TOLEDO METCALF CLEAR     65  53  65 CALM      30.08R
LIMA           PTCLDY    61  58  90 E3        30.08R

$$
AND FOR LAKE MICHIGAN COASTAL AND OPEN LAKE BUOY OBSERVATIONS

STATION/POSITION TEMP    WIND        PRES    VSBY  WAVE
                 AIR SEA DIR/SP/G                  HT/PER
                 (F)     (DEG/KT/KT) (MB)    (MI)  (FT/S)
CALUMET HARBOR    68      50/  1/  2   N/A
MICHIGAN CITY     70     110/  6/  7   N/A
BURNS HARBOR      73     150/  6/  9 1017.6R
SAINT JOSEPH      65      CALM  /  1   N/A
4 MI NW BRIDGMAN  66 65                N/A           0
MICHIGAN CITY     65 64  110/  4/  4   N/A           0

$$
&&



USA.gov is the U.S. government's official web portal to all federal, state and local government web resources and services.